Location: Unspecified
(0.0000°N, 0.0000°E)
Time: 20:54:00
(UTC+02:00)

Vanguard 1 Rocket - Visible Passes

Search period start: 01 October 2016 00:00
Search period end: 11 October 2016 00:00
Orbit: 651 x 4226 km, 34.3° (Epoch: 30 September)

Date Brightness Start Highest point End Pass type
(mag) Time Alt. Az. Time Alt. Az. Time Alt. Az.
01 Oct 9.8 06:09:42 10° S 06:13:34 17° SE 06:18:44 10° E visible
01 Oct 9.8 21:17:12 10° WNW 21:34:50 52° SW 21:42:55 15° SSE visible
02 Oct 8.9 07:21:01 10° SW 07:27:18 56° SE 07:39:09 10° ENE visible
02 Oct 9.8 20:00:13 10° NW 20:22:24 82° SW 20:33:41 10° SE visible
02 Oct 10.2 22:39:58 10° W 22:49:19 20° SW 22:53:38 15° S visible
03 Oct 9.5 06:11:49 10° S 06:16:28 25° SE 06:23:26 10° E visible
03 Oct 10.2 21:20:50 10° WNW 21:37:31 40° SW 21:46:41 10° SSE visible
04 Oct 10.1 20:03:04 10° WNW 20:25:09 66° SW 20:36:42 10° SE visible
04 Oct 10.5 22:45:42 10° WSW 22:52:23 15° SW 22:57:24 10° S visible
05 Oct 8.9 06:14:45 12° SSW 06:19:21 37° SE 06:27:27 10° ENE visible
05 Oct 10.4 21:24:58 10° W 21:40:16 32° SW 21:49:17 10° SSE visible
06 Oct 9.7 05:08:02 13° SE 05:08:39 14° SE 05:11:40 10° ESE visible
06 Oct 10.4 20:06:17 10° WNW 20:27:49 54° SW 20:39:32 10° SSE visible
06 Oct 10.7 22:53:24 10° SW 22:55:43 11° SW 22:57:49 10° SSW visible
07 Oct 8.1 06:18:40 21° SSW 06:22:18 58° SE 06:30:56 10° ENE visible
07 Oct 10.6 21:29:43 10° W 21:43:10 25° SW 21:51:42 10° S visible
08 Oct 9.2 05:11:59 22° SE 05:11:59 22° SE 05:16:34 10° E visible
08 Oct 10.6 20:09:54 10° WNW 20:30:28 43° SW 20:42:16 10° SSE visible
09 Oct 7.4 06:22:40 31° SW 06:25:24 90° SSE 06:34:03 10° NE visible
09 Oct 10.7 21:35:13 10° WSW 21:46:18 19° SW 21:53:57 10° S visible
10 Oct 8.7 05:15:59 32° ESE 05:15:59 32° ESE 05:20:35 10° ENE visible
10 Oct 10.7 20:14:04 10° W 20:33:13 35° SW 20:44:53 10° SSE visible
